EJU35UZ LFRS-LGKR

Flight info

Callsign EJU35UZ
Flight time 2h 40m
Altitude 25000
Route LUGEN UM184 TUPAR/N0404F290 DCT DIDRU DCT BEBIX/N0389F280 DCT VALKU/N0402F290 DCT TIS DCT MEBAK/N0427F370 DCT GIPNO DCT BALSI DCT OBIGO DCT ROBEX DCT LAPRI/N0430F380 DCT MOGBO/N0429F370 DCT IBENI DCT KOFER DCT RODON DCT LIMJA N732 PITAS
Aircraft A320/M-SDE2E3FGHIJ1RWXYZ/LB1

Departure

Time 2026-04-27 15:53
Airport Nantes Atlantique Airport (LFRS)

Arrival

Time 2026-04-27 18:33
Airport Corfu Ioannis Kapodistrias International Airport (LGKR)
Time Latitude Longitude Altitude Speed Heading
2026-04-27 15:18 47.15674 -1.60225 89 ft 0 kts 35°
2026-04-27 15:42 47.15657 -1.60243 93 ft 4 kts 35°
2026-04-27 15:42 47.15636 -1.60264 90 ft 2 kts 35°
2026-04-27 15:42 47.15619 -1.60276 90 ft 4 kts 335°
2026-04-27 15:42 47.15604 -1.60252 90 ft 4 kts 297°
2026-04-27 15:43 47.15591 -1.60217 92 ft 4 kts 297°
2026-04-27 15:43 47.15580 -1.60187 90 ft 1 kts 297°
2026-04-27 15:43 47.15580 -1.60186 90 ft 0 kts 297°
2026-04-27 15:46 47.15582 -1.60191 90 ft 2 kts 296°
2026-04-27 15:46 47.15584 -1.60234 90 ft 6 kts 261°
2026-04-27 15:46 47.15553 -1.60286 92 ft 8 kts 215°
2026-04-27 15:46 47.15521 -1.60360 91 ft 9 kts 262°
2026-04-27 15:47 47.15542 -1.60447 92 ft 10 kts 303°
2026-04-27 15:47 47.15583 -1.60552 90 ft 14 kts 282°
2026-04-27 15:47 47.15525 -1.60647 91 ft 13 kts 207°
2026-04-27 15:47 47.15446 -1.60707 90 ft 12 kts 207°
2026-04-27 15:48 47.15378 -1.60759 93 ft 10 kts 207°
2026-04-27 15:48 47.15305 -1.60814 91 ft 12 kts 207°
2026-04-27 15:48 47.15222 -1.60878 91 ft 16 kts 207°
2026-04-27 15:49 47.15060 -1.61001 91 ft 15 kts 207°
2026-04-27 15:49 47.14968 -1.61071 90 ft 14 kts 207°
2026-04-27 15:49 47.14878 -1.61139 92 ft 14 kts 207°
2026-04-27 15:49 47.14790 -1.61206 92 ft 15 kts 207°
2026-04-27 15:50 47.14692 -1.61281 92 ft 15 kts 207°
2026-04-27 15:50 47.14598 -1.61353 89 ft 18 kts 207°
2026-04-27 15:50 47.14490 -1.61435 91 ft 16 kts 207°
2026-04-27 15:50 47.14393 -1.61509 87 ft 16 kts 207°
2026-04-27 15:51 47.14291 -1.61586 86 ft 16 kts 207°
2026-04-27 15:51 47.14197 -1.61659 86 ft 15 kts 211°
2026-04-27 15:51 47.14148 -1.61782 86 ft 13 kts 251°
2026-04-27 15:51 47.14153 -1.61895 86 ft 10 kts 295°
2026-04-27 15:52 47.14208 -1.61917 88 ft 10 kts 24°
2026-04-27 15:52 47.14280 -1.61862 89 ft 24 kts 27°
2026-04-27 15:52 47.14652 -1.61581 93 ft 92 kts 27°
2026-04-27 15:52 47.15395 -1.61016 90 ft 145 kts 27°
2026-04-27 15:53 47.16334 -1.60286 626 ft 152 kts 31°
2026-04-27 15:53 47.17019 -1.59124 1261 ft 158 kts 77°
2026-04-27 15:53 47.16867 -1.57521 1903 ft 168 kts 119°
2026-04-27 15:53 47.15964 -1.56377 2521 ft 177 kts 146°
2026-04-27 15:54 47.14898 -1.55494 3134 ft 179 kts 149°
2026-04-27 15:54 47.13761 -1.54602 3560 ft 195 kts 149°
2026-04-27 15:54 47.12503 -1.53602 3868 ft 216 kts 149°
2026-04-27 15:54 47.11118 -1.52495 4124 ft 241 kts 149°
2026-04-27 15:55 47.09563 -1.51249 4433 ft 267 kts 149°
2026-04-27 15:55 47.07917 -1.49931 5271 ft 272 kts 149°
2026-04-27 15:55 47.06294 -1.48497 6158 ft 273 kts 140°
2026-04-27 15:55 47.04840 -1.46697 7042 ft 275 kts 137°
2026-04-27 15:56 47.03414 -1.44792 7828 ft 280 kts 136°
2026-04-27 15:56 47.01976 -1.42838 8655 ft 284 kts 137°
2026-04-27 15:56 47.00516 -1.40852 9465 ft 289 kts 136°
2026-04-27 15:56 46.99028 -1.38846 10267 ft 293 kts 137°
2026-04-27 15:57 46.97472 -1.36770 10627 ft 314 kts 137°
2026-04-27 15:57 46.95797 -1.34562 11018 ft 331 kts 138°
2026-04-27 15:57 46.94065 -1.32300 11695 ft 336 kts 139°
2026-04-27 15:57 46.92306 -1.30015 12453 ft 340 kts 139°
2026-04-27 15:58 46.90527 -1.27706 13204 ft 343 kts 140°
2026-04-27 15:58 46.88732 -1.25382 13957 ft 346 kts 140°
2026-04-27 15:58 46.86919 -1.23035 14612 ft 350 kts 140°
2026-04-27 15:58 46.85088 -1.20668 15214 ft 354 kts 140°
2026-04-27 15:59 46.83230 -1.18265 15796 ft 359 kts 140°
2026-04-27 15:59 46.81355 -1.15829 16404 ft 363 kts 140°
2026-04-27 15:59 46.79459 -1.13362 17014 ft 367 kts 140°
2026-04-27 15:59 46.77543 -1.10873 17636 ft 371 kts 140°
2026-04-27 16:00 46.75606 -1.08362 18243 ft 375 kts 140°
2026-04-27 16:00 46.73648 -1.05829 18786 ft 378 kts 140°
2026-04-27 16:00 46.71668 -1.03274 19308 ft 382 kts 141°
2026-04-27 16:00 46.69673 -1.00700 19842 ft 385 kts 141°
2026-04-27 16:01 46.67660 -0.98106 20369 ft 388 kts 141°
2026-04-27 16:01 46.65658 -0.95533 20880 ft 391 kts 141°
2026-04-27 16:01 46.63613 -0.92906 21377 ft 394 kts 142°
2026-04-27 16:01 46.61548 -0.90254 21878 ft 397 kts 142°
2026-04-27 16:02 46.59470 -0.87585 22369 ft 400 kts 142°
2026-04-27 16:02 46.57377 -0.84898 22859 ft 403 kts 142°
2026-04-27 16:02 46.55272 -0.82188 23322 ft 406 kts 142°
2026-04-27 16:02 46.53151 -0.79451 23774 ft 409 kts 142°
2026-04-27 16:03 46.51028 -0.76709 24276 ft 408 kts 142°
2026-04-27 16:03 46.48900 -0.73966 24710 ft 410 kts 142°
2026-04-27 16:03 46.46763 -0.71216 25097 ft 412 kts 143°
2026-04-27 16:03 46.44629 -0.68421 25470 ft 416 kts 139°
2026-04-27 16:04 46.42735 -0.65199 25834 ft 425 kts 129°
2026-04-27 16:04 46.41208 -0.61487 26188 ft 433 kts 121°
2026-04-27 16:04 46.39843 -0.57588 26536 ft 435 kts 121°
2026-04-27 16:04 46.38464 -0.53665 26889 ft 438 kts 121°
2026-04-27 16:05 46.37072 -0.49725 27231 ft 441 kts 122°
2026-04-27 16:05 46.35668 -0.45763 27565 ft 443 kts 122°
2026-04-27 16:05 46.34254 -0.41785 27928 ft 446 kts 122°
2026-04-27 16:05 46.32829 -0.37789 28269 ft 448 kts 122°
2026-04-27 16:06 46.31393 -0.33770 28600 ft 451 kts 122°
2026-04-27 16:06 46.29949 -0.29725 28924 ft 454 kts 122°
2026-04-27 16:06 46.28497 -0.25658 29245 ft 457 kts 122°
2026-04-27 16:06 46.27034 -0.21566 29568 ft 460 kts 122°
2026-04-27 16:07 46.25562 -0.17453 29885 ft 462 kts 122°
2026-04-27 16:07 46.24081 -0.13318 30179 ft 465 kts 123°
2026-04-27 16:07 46.22588 -0.09160 30437 ft 467 kts 123°
2026-04-27 16:07 46.21085 -0.04989 30704 ft 469 kts 123°
2026-04-27 16:08 46.19576 -0.00807 30984 ft 471 kts 122°
2026-04-27 16:08 46.18256 0.03476 31208 ft 477 kts 114°
2026-04-27 16:08 46.17340 0.08109 31454 ft 483 kts 107°
2026-04-27 16:08 46.16577 0.12823 31793 ft 482 kts 107°
2026-04-27 16:09 46.15817 0.17510 32233 ft 479 kts 107°
2026-04-27 16:09 46.14286 0.26817 33027 ft 475 kts 107°
2026-04-27 16:09 46.13517 0.31437 33405 ft 474 kts 107°
2026-04-27 16:10 46.11978 0.40652 34114 ft 472 kts 107°
2026-04-27 16:10 46.10446 0.49815 34776 ft 469 kts 107°
2026-04-27 16:11 46.09678 0.54377 35044 ft 468 kts 107°
2026-04-27 16:11 46.08138 0.63493 35566 ft 468 kts 107°
2026-04-27 16:12 46.06590 0.72587 36055 ft 468 kts 107°
2026-04-27 16:12 46.05816 0.77137 36295 ft 467 kts 107°
2026-04-27 16:12 46.04267 0.86215 36747 ft 467 kts 106°
2026-04-27 16:13 46.03489 0.90750 36960 ft 467 kts 106°
2026-04-27 16:13 46.01928 0.99822 37112 ft 467 kts 106°
2026-04-27 16:13 46.01149 1.04354 37113 ft 467 kts 106°
2026-04-27 16:14 45.97995 1.22466 37110 ft 466 kts 106°
2026-04-27 16:15 45.95133 1.40575 37110 ft 468 kts 95°
2026-04-27 16:16 45.95700 1.59302 37101 ft 469 kts 87°
2026-04-27 16:17 45.96406 1.78042 37106 ft 470 kts 87°
2026-04-27 16:18 45.97098 1.96807 37110 ft 470 kts 88°
2026-04-27 16:19 45.97429 2.06192 37108 ft 470 kts 88°
2026-04-27 16:20 45.98072 2.24962 37101 ft 470 kts 88°
2026-04-27 16:21 45.98521 2.39044 37106 ft 470 kts 88°
2026-04-27 16:22 45.99117 2.57815 37110 ft 470 kts 88°
2026-04-27 16:22 45.99532 2.71830 37109 ft 470 kts 88°
2026-04-27 16:23 45.99195 2.85838 37107 ft 467 kts 104°
2026-04-27 16:24 45.97765 2.94964 37094 ft 468 kts 104°
2026-04-27 16:25 45.94909 3.13216 37088 ft 468 kts 104°
2026-04-27 16:26 45.92028 3.31460 37084 ft 468 kts 104°
2026-04-27 16:27 45.89107 3.49658 37087 ft 468 kts 104°
2026-04-27 16:28 45.85542 3.72415 37098 ft 468 kts 103°
2026-04-27 16:29 45.82005 3.95168 37098 ft 468 kts 103°
2026-04-27 16:30 45.79135 4.13310 37094 ft 469 kts 104°
2026-04-27 16:31 45.75490 4.36052 37090 ft 469 kts 104°
2026-04-27 16:32 45.73287 4.49682 37086 ft 468 kts 104°
2026-04-27 16:33 45.71067 4.63304 37081 ft 468 kts 104°
2026-04-27 16:33 45.69575 4.72373 37085 ft 468 kts 104°
2026-04-27 16:34 45.68084 4.81421 37085 ft 468 kts 104°
2026-04-27 16:34 45.66578 4.90469 37075 ft 467 kts 104°
2026-04-27 16:35 45.65068 4.99496 37081 ft 467 kts 104°
2026-04-27 16:36 45.62805 5.12953 37081 ft 466 kts 104°
2026-04-27 16:36 45.61277 5.21957 37086 ft 466 kts 104°
2026-04-27 16:37 45.59747 5.30949 37084 ft 466 kts 104°
2026-04-27 16:37 45.58218 5.39944 37085 ft 466 kts 104°
2026-04-27 16:38 45.56681 5.48930 37086 ft 466 kts 104°
2026-04-27 16:38 45.55105 5.57901 37085 ft 466 kts 105°
2026-04-27 16:39 45.53405 5.66817 37066 ft 466 kts 106°
2026-04-27 16:39 45.51657 5.75707 37060 ft 466 kts 106°
2026-04-27 16:40 45.49933 5.84609 37058 ft 466 kts 105°
2026-04-27 16:40 45.48466 5.91976 37061 ft 465 kts 110°
2026-04-27 16:41 45.45469 6.00077 37074 ft 463 kts 129°
2026-04-27 16:41 45.40769 6.08351 37072 ft 462 kts 130°
2026-04-27 16:42 45.36724 6.15440 37093 ft 461 kts 130°
2026-04-27 16:42 45.33367 6.21330 37110 ft 461 kts 130°
2026-04-27 16:43 45.29331 6.28396 37110 ft 461 kts 130°
2026-04-27 16:43 45.25280 6.35465 37122 ft 462 kts 130°
2026-04-27 16:44 45.21222 6.42524 37119 ft 462 kts 130°
2026-04-27 16:44 45.17168 6.49575 37125 ft 461 kts 130°
2026-04-27 16:45 45.13147 6.56650 37128 ft 461 kts 125°
2026-04-27 16:45 45.10261 6.64692 37126 ft 459 kts 108°
2026-04-27 16:46 45.08247 6.73255 37121 ft 459 kts 108°
2026-04-27 16:46 45.06214 6.81824 37130 ft 459 kts 108°
2026-04-27 16:47 45.04173 6.90381 37121 ft 459 kts 108°
2026-04-27 16:47 45.02126 6.98929 37121 ft 459 kts 108°
2026-04-27 16:48 45.00072 7.07482 37111 ft 459 kts 108°
2026-04-27 16:48 44.98240 7.16048 37110 ft 458 kts 101°
2026-04-27 16:49 44.96825 7.29373 37082 ft 457 kts 95°
2026-04-27 16:49 44.96006 7.38275 37064 ft 457 kts 97°
2026-04-27 16:50 44.95014 7.47146 37066 ft 458 kts 98°
2026-04-27 16:50 44.93945 7.56002 37063 ft 457 kts 98°
2026-04-27 16:51 44.92902 7.64834 37050 ft 456 kts 98°
2026-04-27 16:51 44.91881 7.73652 37052 ft 455 kts 97°
2026-04-27 16:52 44.90847 7.82461 37049 ft 455 kts 98°
2026-04-27 16:52 44.89797 7.91260 37047 ft 455 kts 98°
2026-04-27 16:53 44.88747 8.00060 37048 ft 455 kts 98°
2026-04-27 16:53 44.87691 8.08849 37046 ft 454 kts 98°
2026-04-27 16:54 44.86635 8.17630 37055 ft 454 kts 98°
2026-04-27 16:54 44.85571 8.26409 37052 ft 454 kts 98°
2026-04-27 16:55 44.84502 8.35116 37057 ft 454 kts 98°
2026-04-27 16:55 44.83420 8.43887 37065 ft 453 kts 98°
2026-04-27 16:56 44.82336 8.52624 37062 ft 453 kts 98°
2026-04-27 16:56 44.81246 8.61360 37060 ft 453 kts 98°
2026-04-27 16:57 44.80141 8.70084 37072 ft 453 kts 98°
2026-04-27 16:57 44.79036 8.78808 37066 ft 452 kts 98°
2026-04-27 16:58 44.77929 8.87517 37072 ft 452 kts 98°
2026-04-27 16:58 44.76811 8.96212 37069 ft 452 kts 98°
2026-04-27 16:59 44.75693 9.04909 37070 ft 452 kts 98°
2026-04-27 16:59 44.74566 9.13606 37079 ft 452 kts 98°
2026-04-27 17:00 44.72868 9.26599 37067 ft 450 kts 98°
2026-04-27 17:01 44.71726 9.35255 37066 ft 450 kts 98°
2026-04-27 17:01 44.70577 9.43898 37058 ft 450 kts 98°
2026-04-27 17:02 44.69419 9.52540 37051 ft 449 kts 99°
2026-04-27 17:02 44.68270 9.61101 37051 ft 449 kts 99°
2026-04-27 17:03 44.67109 9.69712 37049 ft 449 kts 99°
2026-04-27 17:03 44.65942 9.78319 37051 ft 449 kts 99°
2026-04-27 17:04 44.64766 9.86932 37061 ft 449 kts 99°
2026-04-27 17:04 44.63587 9.95529 37071 ft 448 kts 99°
2026-04-27 17:05 44.62396 10.04119 37068 ft 448 kts 99°
2026-04-27 17:05 44.61202 10.12702 37065 ft 448 kts 99°
2026-04-27 17:06 44.60004 10.21276 37057 ft 448 kts 99°
2026-04-27 17:06 44.58799 10.29847 37061 ft 448 kts 99°
2026-04-27 17:07 44.57587 10.38409 37065 ft 448 kts 99°
2026-04-27 17:07 44.56367 10.46973 37062 ft 448 kts 99°
2026-04-27 17:08 44.55139 10.55531 37062 ft 448 kts 99°
2026-04-27 17:08 44.53902 10.64087 37056 ft 448 kts 99°
2026-04-27 17:09 44.52663 10.72638 37054 ft 448 kts 99°
2026-04-27 17:09 44.51420 10.81189 37057 ft 448 kts 99°
2026-04-27 17:10 44.50174 10.89732 37059 ft 448 kts 99°
2026-04-27 17:10 44.48921 10.98270 37057 ft 448 kts 99°
2026-04-27 17:11 44.47660 11.06812 37059 ft 448 kts 99°
2026-04-27 17:11 44.45752 11.19603 37057 ft 448 kts 100°
2026-04-27 17:12 44.43836 11.32340 37031 ft 448 kts 100°
2026-04-27 17:13 44.42550 11.40861 37036 ft 448 kts 100°
2026-04-27 17:13 44.41254 11.49374 37040 ft 448 kts 100°
2026-04-27 17:14 44.39945 11.57889 37047 ft 448 kts 100°
2026-04-27 17:14 44.38637 11.66402 37055 ft 448 kts 100°
2026-04-27 17:15 44.37327 11.74922 37063 ft 448 kts 100°
2026-04-27 17:15 44.36009 11.83440 37062 ft 449 kts 100°
2026-04-27 17:16 44.34675 11.91957 37062 ft 449 kts 100°
2026-04-27 17:16 44.33335 12.00470 37062 ft 449 kts 101°
2026-04-27 17:17 44.31990 12.08979 37059 ft 449 kts 101°
2026-04-27 17:17 44.30642 12.17498 37066 ft 450 kts 101°
2026-04-27 17:18 44.28606 12.30279 37083 ft 450 kts 101°
2026-04-27 17:18 44.27243 12.38788 37085 ft 449 kts 101°
2026-04-27 17:19 44.25871 12.47303 37082 ft 450 kts 101°
2026-04-27 17:19 44.24497 12.55767 37079 ft 450 kts 101°
2026-04-27 17:20 44.23103 12.64282 37061 ft 450 kts 101°
2026-04-27 17:20 44.21710 12.72792 37061 ft 450 kts 101°
2026-04-27 17:21 44.20315 12.81301 37061 ft 450 kts 101°
2026-04-27 17:21 44.18907 12.89808 37064 ft 451 kts 101°
2026-04-27 17:22 44.17489 12.98316 37066 ft 451 kts 101°
2026-04-27 17:22 44.16068 13.06822 37073 ft 451 kts 101°
2026-04-27 17:23 44.14636 13.15321 37074 ft 451 kts 101°
2026-04-27 17:23 44.13200 13.23819 37071 ft 451 kts 101°
2026-04-27 17:24 44.11758 13.32329 37068 ft 452 kts 102°
2026-04-27 17:24 44.10311 13.40827 37073 ft 451 kts 102°
2026-04-27 17:25 44.08863 13.49326 37073 ft 451 kts 102°
2026-04-27 17:25 44.07404 13.57821 37073 ft 452 kts 102°
2026-04-27 17:26 44.05930 13.66319 37076 ft 452 kts 102°
2026-04-27 17:26 44.04447 13.74811 37076 ft 452 kts 102°
2026-04-27 17:27 44.02970 13.83250 37076 ft 452 kts 102°
2026-04-27 17:27 44.01897 13.87346 37080 ft 453 kts 120°
2026-04-27 17:27 44.00173 13.91023 37076 ft 455 kts 121°
2026-04-27 17:28 43.97011 13.98638 37076 ft 455 kts 118°
2026-04-27 17:29 43.92351 14.10135 37079 ft 456 kts 118°
2026-04-27 17:29 43.89264 14.17805 37079 ft 456 kts 118°
2026-04-27 17:30 43.86156 14.25462 37079 ft 456 kts 118°
2026-04-27 17:30 43.81481 14.36938 37081 ft 456 kts 118°
2026-04-27 17:31 43.78354 14.44572 37081 ft 456 kts 118°
2026-04-27 17:31 43.75228 14.52204 37081 ft 456 kts 118°
2026-04-27 17:32 43.71063 14.62350 37081 ft 456 kts 118°
2026-04-27 17:33 43.67928 14.69963 37081 ft 456 kts 118°
2026-04-27 17:33 43.64786 14.77566 37079 ft 456 kts 118°
2026-04-27 17:34 43.61644 14.85161 37080 ft 456 kts 118°
2026-04-27 17:34 43.58490 14.92751 37091 ft 456 kts 119°
2026-04-27 17:35 43.55331 15.00320 37082 ft 456 kts 119°
2026-04-27 17:35 43.52171 15.07894 37082 ft 456 kts 118°
2026-04-27 17:36 43.49006 15.15464 37083 ft 456 kts 119°
2026-04-27 17:36 43.45835 15.23024 37080 ft 456 kts 119°
2026-04-27 17:37 43.42678 15.30517 37082 ft 456 kts 119°
2026-04-27 17:37 43.39498 15.38059 37078 ft 456 kts 119°
2026-04-27 17:38 43.36307 15.45597 37079 ft 456 kts 119°
2026-04-27 17:38 43.33108 15.53116 37078 ft 456 kts 119°
2026-04-27 17:39 43.29911 15.60633 37081 ft 456 kts 119°
2026-04-27 17:39 43.26719 15.68152 37076 ft 456 kts 119°
2026-04-27 17:40 43.23511 15.75657 37079 ft 456 kts 119°
2026-04-27 17:40 43.20294 15.83154 37082 ft 456 kts 119°
2026-04-27 17:41 43.17096 15.90595 37082 ft 456 kts 119°
2026-04-27 17:41 43.13874 15.98073 37078 ft 456 kts 119°
2026-04-27 17:42 43.10637 16.05543 37079 ft 456 kts 119°
2026-04-27 17:42 43.07403 16.13014 37072 ft 456 kts 119°
2026-04-27 17:43 43.04168 16.20482 37082 ft 456 kts 119°
2026-04-27 17:43 43.00925 16.27932 37081 ft 456 kts 119°
2026-04-27 17:44 42.97677 16.35382 37095 ft 456 kts 119°
2026-04-27 17:44 42.94423 16.42826 37082 ft 457 kts 119°
2026-04-27 17:45 42.91159 16.50266 37078 ft 457 kts 119°
2026-04-27 17:45 42.87890 16.57702 37078 ft 457 kts 119°
2026-04-27 17:46 42.84613 16.65133 37080 ft 457 kts 120°
2026-04-27 17:46 42.81335 16.72550 37091 ft 458 kts 120°
2026-04-27 17:47 42.78043 16.79975 37070 ft 458 kts 120°
2026-04-27 17:47 42.74748 16.87399 37083 ft 459 kts 120°
2026-04-27 17:48 42.71448 16.94826 37081 ft 459 kts 120°
2026-04-27 17:48 42.68164 17.02191 37079 ft 459 kts 120°
2026-04-27 17:49 42.64844 17.09590 37080 ft 459 kts 120°
2026-04-27 17:49 42.61520 17.16998 37078 ft 459 kts 120°
2026-04-27 17:50 42.58198 17.24392 37085 ft 459 kts 120°
2026-04-27 17:50 42.53197 17.35475 37076 ft 459 kts 120°
2026-04-27 17:51 42.49859 17.42846 37079 ft 459 kts 120°
2026-04-27 17:51 42.46507 17.50228 37082 ft 461 kts 120°
2026-04-27 17:52 42.43140 17.57639 37083 ft 467 kts 120°
2026-04-27 17:52 42.39712 17.65163 37077 ft 471 kts 121°
2026-04-27 17:53 42.36266 17.72699 37073 ft 471 kts 121°
2026-04-27 17:53 42.32814 17.80234 37084 ft 472 kts 121°
2026-04-27 17:54 42.29345 17.87778 37069 ft 473 kts 121°
2026-04-27 17:54 42.25875 17.95313 37084 ft 473 kts 121°
2026-04-27 17:55 42.22399 18.02841 37075 ft 473 kts 121°
2026-04-27 17:55 42.18918 18.10362 37075 ft 473 kts 121°
2026-04-27 17:56 42.15453 18.17830 37064 ft 473 kts 121°
2026-04-27 17:56 42.11961 18.25346 37063 ft 473 kts 121°
2026-04-27 17:57 42.08458 18.32852 37069 ft 474 kts 121°
2026-04-27 17:57 42.04946 18.40352 37071 ft 474 kts 121°
2026-04-27 17:58 42.01429 18.47847 37080 ft 474 kts 122°
2026-04-27 17:58 41.97909 18.55328 37084 ft 472 kts 122°
2026-04-27 17:59 41.94378 18.62748 37092 ft 470 kts 126°
2026-04-27 17:59 41.89857 18.69018 37092 ft 468 kts 144°
2026-04-27 18:00 41.84535 18.74019 37077 ft 466 kts 146°
2026-04-27 18:00 41.79212 18.78985 37092 ft 466 kts 146°
2026-04-27 18:01 41.73898 18.83961 37088 ft 466 kts 146°
2026-04-27 18:01 41.68587 18.88919 37087 ft 466 kts 146°
2026-04-27 18:02 41.63273 18.93866 37072 ft 465 kts 147°
2026-04-27 18:02 41.57956 18.98798 37069 ft 465 kts 147°
2026-04-27 18:03 41.52637 19.03714 37072 ft 465 kts 147°
2026-04-27 18:03 41.47299 19.08599 37079 ft 465 kts 150°
2026-04-27 18:04 41.41467 19.12146 37080 ft 460 kts 163°
2026-04-27 18:04 41.35491 19.15054 37078 ft 460 kts 163°
2026-04-27 18:05 41.29482 19.17983 37084 ft 460 kts 163°
2026-04-27 18:05 41.23473 19.20915 37086 ft 460 kts 163°
2026-04-27 18:06 41.17465 19.23840 37089 ft 460 kts 163°
2026-04-27 18:06 41.11458 19.26756 37088 ft 460 kts 163°
2026-04-27 18:07 41.05448 19.29670 37086 ft 460 kts 163°
2026-04-27 18:07 40.99438 19.32575 37083 ft 459 kts 163°
2026-04-27 18:08 40.93432 19.35463 37058 ft 460 kts 163°
2026-04-27 18:08 40.90424 19.36911 36798 ft 460 kts 163°
2026-04-27 18:08 40.87418 19.38357 36538 ft 459 kts 163°
2026-04-27 18:09 40.84415 19.39801 36282 ft 459 kts 163°
2026-04-27 18:09 40.81412 19.41243 36027 ft 459 kts 163°
2026-04-27 18:09 40.78409 19.42682 35773 ft 459 kts 163°
2026-04-27 18:09 40.75404 19.44128 35525 ft 460 kts 162°
2026-04-27 18:10 40.72601 19.46067 35265 ft 466 kts 146°
2026-04-27 18:10 40.70258 19.49029 35017 ft 471 kts 128°
2026-04-27 18:10 40.68584 19.52734 34779 ft 472 kts 116°
2026-04-27 18:10 40.67192 19.56648 34550 ft 471 kts 115°
2026-04-27 18:11 40.65829 19.60565 34294 ft 470 kts 115°
2026-04-27 18:11 40.64473 19.64472 34049 ft 468 kts 115°
2026-04-27 18:11 40.63125 19.68363 33782 ft 466 kts 115°
2026-04-27 18:11 40.61784 19.72236 33504 ft 464 kts 115°
2026-04-27 18:12 40.60447 19.76087 33220 ft 462 kts 116°
2026-04-27 18:12 40.58765 19.79646 32837 ft 455 kts 133°
2026-04-27 18:12 40.56430 19.82367 32473 ft 446 kts 151°
2026-04-27 18:12 40.53662 19.84080 32119 ft 437 kts 164°
2026-04-27 18:13 40.50791 19.85380 31748 ft 436 kts 165°
2026-04-27 18:13 40.47925 19.86640 31242 ft 433 kts 165°
2026-04-27 18:13 40.45073 19.87867 30735 ft 429 kts 168°
2026-04-27 18:13 40.42174 19.88598 30244 ft 422 kts 175°
2026-04-27 18:14 40.39274 19.89155 29557 ft 421 kts 175°
2026-04-27 18:14 40.36373 19.89698 28854 ft 421 kts 175°
2026-04-27 18:14 40.33474 19.90230 28189 ft 420 kts 175°
2026-04-27 18:14 40.30578 19.90752 27528 ft 420 kts 175°
2026-04-27 18:15 40.27685 19.91271 26880 ft 419 kts 175°
2026-04-27 18:15 40.24799 19.91786 26246 ft 418 kts 175°
2026-04-27 18:15 40.21917 19.92296 25622 ft 417 kts 175°
2026-04-27 18:15 40.19042 19.92796 25016 ft 416 kts 175°
2026-04-27 18:16 40.16180 19.93289 24434 ft 414 kts 175°
2026-04-27 18:16 40.13338 19.93774 23904 ft 410 kts 175°
2026-04-27 18:16 40.10558 19.94243 23316 ft 407 kts 175°
2026-04-27 18:16 40.07760 19.94706 22708 ft 404 kts 175°
2026-04-27 18:17 40.04976 19.95143 22092 ft 401 kts 178°
2026-04-27 18:17 40.02223 19.94917 21503 ft 395 kts 193°
2026-04-27 18:17 39.99548 19.94176 20904 ft 392 kts 195°
2026-04-27 18:17 39.96888 19.93400 20333 ft 391 kts 195°
2026-04-27 18:18 39.94239 19.92613 19768 ft 390 kts 195°
2026-04-27 18:18 39.91603 19.91820 19205 ft 389 kts 195°
2026-04-27 18:18 39.88969 19.91016 18624 ft 388 kts 195°
2026-04-27 18:18 39.86341 19.90201 17989 ft 388 kts 195°
2026-04-27 18:19 39.83716 19.89381 17322 ft 388 kts 195°
2026-04-27 18:19 39.81101 19.88530 16663 ft 386 kts 199°
2026-04-27 18:19 39.78704 19.87023 16028 ft 382 kts 214°
2026-04-27 18:19 39.76475 19.85150 15395 ft 381 kts 215°
2026-04-27 18:20 39.74265 19.83256 14772 ft 380 kts 215°
2026-04-27 18:20 39.72065 19.81359 14184 ft 379 kts 215°
2026-04-27 18:20 39.69878 19.79461 13551 ft 377 kts 215°
2026-04-27 18:20 39.67708 19.77560 12894 ft 375 kts 215°
2026-04-27 18:21 39.65568 19.75657 12386 ft 369 kts 215°
2026-04-27 18:21 39.63478 19.73777 11979 ft 361 kts 215°
2026-04-27 18:21 39.61447 19.71936 11652 ft 351 kts 215°
2026-04-27 18:21 39.59497 19.70159 11402 ft 333 kts 215°
2026-04-27 18:22 39.57664 19.68478 11169 ft 313 kts 215°
2026-04-27 18:22 39.55946 19.66891 10912 ft 294 kts 215°
2026-04-27 18:22 39.54331 19.65387 10628 ft 279 kts 215°
2026-04-27 18:22 39.52796 19.63946 10344 ft 268 kts 215°
2026-04-27 18:23 39.51292 19.62529 10052 ft 267 kts 215°
2026-04-27 18:23 39.49796 19.61109 9696 ft 266 kts 215°
2026-04-27 18:23 39.48308 19.59691 9332 ft 265 kts 215°
2026-04-27 18:23 39.47305 19.58789 9081 ft 264 kts 208°
2026-04-27 18:24 39.45574 19.58160 8719 ft 260 kts 179°
2026-04-27 18:24 39.43829 19.58655 8368 ft 257 kts 158°
2026-04-27 18:24 39.42197 19.59588 8016 ft 256 kts 155°
2026-04-27 18:24 39.40595 19.60570 7669 ft 254 kts 154°
2026-04-27 18:25 39.39187 19.61902 7458 ft 251 kts 131°
2026-04-27 18:25 39.38325 19.63870 7269 ft 254 kts 107°
2026-04-27 18:25 39.38212 19.66135 6948 ft 255 kts 80°
2026-04-27 18:25 39.38655 19.68356 6614 ft 255 kts 77°
2026-04-27 18:26 39.38868 19.70611 6245 ft 253 kts 89°
2026-04-27 18:26 39.38936 19.72878 5846 ft 253 kts 89°
2026-04-27 18:26 39.39034 19.75145 5444 ft 253 kts 86°
2026-04-27 18:26 39.39185 19.77416 5037 ft 254 kts 85°
2026-04-27 18:27 39.39349 19.79693 4609 ft 255 kts 85°
2026-04-27 18:27 39.39515 19.81981 4186 ft 256 kts 85°
2026-04-27 18:27 39.39677 19.84237 4011 ft 247 kts 85°
2026-04-27 18:27 39.39828 19.86379 4003 ft 234 kts 86°
2026-04-27 18:28 39.40111 19.88422 3913 ft 229 kts 74°
2026-04-27 18:28 39.40570 19.90387 3801 ft 228 kts 74°
2026-04-27 18:28 39.41019 19.92347 3700 ft 227 kts 75°
2026-04-27 18:28 39.41456 19.94272 3590 ft 219 kts 75°
2026-04-27 18:29 39.41983 19.96046 3513 ft 206 kts 55°
2026-04-27 18:29 39.43088 19.97088 3391 ft 202 kts 16°
2026-04-27 18:29 39.44459 19.97015 3077 ft 199 kts 341°
2026-04-27 18:29 39.45771 19.96456 2785 ft 198 kts 342°
2026-04-27 18:30 39.47077 19.95928 2493 ft 193 kts 342°
2026-04-27 18:30 39.48306 19.95419 2289 ft 177 kts 342°
2026-04-27 18:30 39.49432 19.94935 2046 ft 164 kts 342°
2026-04-27 18:30 39.50458 19.94482 1866 ft 149 kts 341°
2026-04-27 18:31 39.51415 19.94032 1657 ft 144 kts 341°
2026-04-27 18:31 39.52342 19.93581 1439 ft 141 kts 341°
2026-04-27 18:31 39.53262 19.93172 1286 ft 139 kts 341°
2026-04-27 18:31 39.54185 19.92804 1093 ft 138 kts 345°
2026-04-27 18:32 39.55117 19.92521 954 ft 137 kts 347°
2026-04-27 18:32 39.56053 19.92282 789 ft 137 kts 348°
2026-04-27 18:32 39.56985 19.92047 616 ft 136 kts 347°
2026-04-27 18:32 39.57913 19.91808 398 ft 136 kts 347°
2026-04-27 18:33 39.58839 19.91561 137 ft 134 kts 348°
2026-04-27 18:33 39.59746 19.91334 15 ft 125 kts 348°
2026-04-27 18:33 39.60381 19.91165 10 ft 51 kts 348°
2026-04-27 18:33 39.60559 19.91182 8 ft 11 kts 26°
2026-04-27 18:34 39.60611 19.91224 8 ft 7 kts 45°
2026-04-27 18:34 39.60638 19.91258 8 ft 5 kts 43°
2026-04-27 18:34 39.60672 19.91278 7 ft 6 kts
2026-04-27 18:34 39.60720 19.91267 7 ft 8 kts 348°
2026-04-27 18:35 39.60756 19.91291 7 ft 4 kts 83°
2026-04-27 18:35 39.60756 19.91322 6 ft 2 kts 76°
2026-04-27 18:35 39.60759 19.91335 6 ft 0 kts 78°
2026-04-27 18:35 39.60759 19.91338 6 ft 0 kts 77°